CW4226 Weather Reports


Display with metric or nautical units.
time (UTC)temp
F
wind
direction
speed
MPH
gust
MPH
rain 1hr
in
rain 24hr
in
rain mn
in
humidity
%
barometer
mb
20260831070145 63 47 1.0 2.0 0.00 0.04 0.04 97 1016.5
20260831070006 64 219 0.0 1.0 0.01 0.06 0.04 97 1014.8
20260831065644 63 322 0.0 1.0 0.00 0.04 0.04 97 1016.7
20260831065143 63 57 2.0 2.0 0.00 0.04 0.04 97 1016.5
20260831064638 63 22 0.0 1.0 0.00 0.04 0.04 97 1017.0
20260831064506 64 219 0.0 1.0 0.01 0.06 0.04 97 1015.0
20260831064133 63 71 0.0 1.0 0.00 0.04 0.04 97 1016.8
20260831063629 63 290 0.0 2.0 0.00 0.04 0.04 97 1016.8
20260831063124 63 227 1.0 1.0 0.00 0.04 0.04 97 1016.9
20260831063009 64 219 0.0 1.0 0.02 0.06 0.04 96 1015.1
20260831062618 63 73 0.0 1.0 0.00 0.04 0.04 96 1016.9
20260831062118 63 72 0.0 2.0 0.00 0.04 0.04 96 1017.0
20260831061616 63 89 0.0 2.0 0.00 0.04 0.04 96 1017.0
20260831061507 64 219 0.0 1.0 0.02 0.06 0.04 96 1015.1
20260831061112 63 54 1.0 1.0 0.00 0.04 0.04 96 1017.1
20260831060608 64 73 1.0 2.0 0.00 0.04 0.04 96 1016.9
20260831060007 64 219 0.0 1.0 0.01 0.05 0.03 96 1015.3
20260831055602 64 76 0.0 1.0 0.00 0.03 0.03 96 1017.1
20260831055058 64 306 0.0 0.0 0.02 0.03 0.03 96 1016.9
20260831054557 64 70 1.0 2.0 0.05 0.03 0.03 96 1017.2
20260831054506 65 219 0.0 1.0 0.01 0.05 0.03 96 1015.3
20260831054056 64 299 0.0 1.0 0.05 0.03 0.03 96 1017.4
20260831053555 65 58 2.0 2.0 0.00 0.02 0.02 96 1017.2
20260831053050 65 47 2.0 2.0 0.00 0.02 0.02 96 1017.0
20260831052549 65 89 2.0 2.0 0.00 0.02 0.02 96 1017.1
20260831052049 65 66 0.0 1.0 0.00 0.02 0.02 96 1017.1
20260831051547 65 17 0.0 1.0 0.00 0.02 0.02 96 1017.0
20260831051507 65 219 0.0 0.0 0.01 0.04 0.02 96 1015.3
20260831051047 65 62 1.0 2.0 0.00 0.02 0.02 96 1017.2
20260831050547 65 55 0.0 2.0 0.00 0.02 0.02 96 1017.1
20260831050045 65 71 1.0 2.0 0.00 0.02 0.02 96 1017.3
20260831050007 65 219 0.0 0.0 0.02 0.04 0.02 96 1015.2
20260831045545 65 89 0.0 1.0 0.02 0.02 0.02 96 1017.1
20260831045040 65 89 0.0 2.0 0.02 0.02 0.02 96 1017.1
20260831044536 65 89 0.0 2.0 0.00 0.02 0.02 96 1017.3
20260831044507 66 219 0.0 0.0 0.02 0.04 0.02 96 1015.3
20260831044031 65 93 0.0 1.0 0.00 0.02 0.02 95 1017.1
20260831043531 65 66 0.0 2.0 0.02 0.02 0.02 95 1017.0
20260831043026 65 82 1.0 2.0 0.02 0.02 0.02 95 1017.1
20260831043007 66 219 0.0 0.0 0.01 0.03 0.01 95 1015.2
20260831042526 65 83 1.0 2.0 0.02 0.01 0.01 95 1017.1
20260831042026 65 56 1.0 2.0 0.02 0.01 0.01 95 1017.1
20260831041516 65 92 0.0 2.0 0.02 0.01 0.01 95 1017.2
20260831041507 66 219 0.0 0.0 0.01 0.03 0.01 95 1015.3
20260831041015 65 71 1.0 2.0 0.02 0.00 0.00 94 1017.1
20260831040510 66 85 1.0 2.0 0.09 0.00 0.00 94 1017.1
20260831040009 66 94 0.0 2.0 0.14 0.03 0.03 94 1017.1
20260831035507 66 83 1.0 2.0 0.05 0.01 0.01 94 1017.3
20260831035002 66 77 0.0 1.0 0.00 0.00 0.00 94 1017.1
20260831034506 66 219 0.0 0.0 0.00 0.00 0.00 93 1015.3
20260831034456 66 73 2.0 2.0 0.00 0.00 0.00 94 1017.2
20260831033952 65 81 0.0 2.0 0.00 0.00 0.00 94 1017.0
20260831033448 65 64 0.0 2.0 0.00 0.00 0.00 94 1017.2
20260831033007 66 219 0.0 0.0 0.00 0.00 0.00 93 1015.1
20260831032943 66 84 1.0 2.0 0.00 0.00 0.00 94 1017.2
20260831032437 66 103 0.0 1.0 0.00 0.00 0.00 93 1016.9
20260831031933 66 52 2.0 2.0 0.00 0.00 0.00 93 1016.9
20260831031432 66 58 1.0 3.0 0.00 0.00 0.00 93 1016.9
20260831030931 66 76 0.0 2.0 0.00 0.00 0.00 93 1017.1
20260831030430 66 62 2.0 2.0 0.00 0.00 0.00 93 1017.3
20260831030007 66 219 0.0 0.0 0.00 0.00 0.00 93 1015.3
20260831025929 66 74 1.0 2.0 0.00 0.00 0.00 93 1017.1
20260831025428 66 63 2.0 2.0 0.00 0.00 0.00 93 1017.0
20260831024924 66 72 1.0 2.0 0.00 0.00 0.00 93 1017.3
20260831024424 66 48 0.0 2.0 0.00 0.00 0.00 93 1017.2
20260831023925 66 89 0.0 2.0 0.00 0.00 0.00 93 1017.1
20260831023423 66 34 1.0 2.0 0.00 0.00 0.00 93 1017.2
20260831023008 66 219 0.0 0.0 0.00 0.00 0.00 92 1015.4
20260831022918 66 141 0.0 2.0 0.00 0.00 0.00 92 1016.9
20260831022417 66 70 1.0 2.0 0.00 0.00 0.00 92 1017.0
20260831021912 66 53 2.0 2.0 0.00 0.00 0.00 92 1017.2
20260831021506 67 219 0.0 0.0 0.00 0.00 0.00 92 1015.4
20260831021411 66 73 2.0 2.0 0.00 0.00 0.00 92 1017.1
20260831020907 66 62 0.0 2.0 0.00 0.00 0.00 92 1017.1
20260831020407 66 68 1.0 3.0 0.00 0.00 0.00 92 1017.1
20260831020008 67 219 0.0 1.0 0.00 0.00 0.00 92 1015.4
20260831015902 66 34 1.0 3.0 0.00 0.00 0.00 92 1017.1
20260831015358 66 75 2.0 2.0 0.00 0.00 0.00 92 1017.1
20260831014858 66 43 1.0 3.0 0.00 0.00 0.00 92 1017.3
20260831014507 67 219 0.0 0.0 0.00 0.00 0.00 92 1015.4
20260831014353 66 41 1.0 2.0 0.00 0.00 0.00 92 1017.2
20260831013849 66 29 0.0 2.0 0.00 0.00 0.00 92 1017.0
20260831013349 66 81 2.0 2.0 0.00 0.00 0.00 92 1017.1
20260831013007 67 219 0.0 0.0 0.00 0.00 0.00 92 1015.4
20260831012844 66 66 1.0 2.0 0.00 0.00 0.00 92 1017.1
20260831012340 66 62 2.0 2.0 0.00 0.00 0.00 92 1017.1
20260831011839 67 60 1.0 2.0 0.00 0.00 0.00 92 1017.1
20260831011507 67 219 0.0 0.0 0.00 0.00 0.00 92 1015.0
20260831011334 67 73 1.0 2.0 0.00 0.00 0.00 92 1016.8
20260831010830 67 54 2.0 2.0 0.00 0.00 0.00 92 1016.7
20260831010330 67 74 0.0 2.0 0.00 0.00 0.00 92 1016.7
20260831010007 67 219 0.0 0.0 0.00 0.00 0.00 92 1015.0
20260831005826 67 82 0.0 2.0 0.00 0.00 0.00 92 1016.5
20260831005321 67 48 0.0 2.0 0.00 0.00 0.00 91 1016.5
20260831004815 67 57 1.0 2.0 0.00 0.00 0.00 91 1016.5
20260831004312 67 57 2.0 2.0 0.00 0.00 0.00 91 1016.4
20260831003807 67 64 2.0 2.0 0.00 0.00 0.00 91 1016.4
20260831003303 67 55 1.0 1.0 0.00 0.00 0.00 91 1016.1
20260831003008 67 219 0.0 0.0 0.00 0.00 0.00 91 1014.5
20260831002802 67 51 2.0 2.0 0.00 0.00 0.00 91 1015.9
20260831002256 67 53 1.0 2.0 0.00 0.00 0.00 91 1016.4
20260831001752 67 42 0.0 2.0 0.00 0.00 0.00 91 1016.2
20260831001507 67 219 0.0 0.0 0.00 0.00 0.00 90 1014.5
20260831001248 67 37 0.0 2.0 0.00 0.00 0.00 90 1016.0
20260831000745 67 79 1.0 2.0 0.00 0.00 0.00 90 1015.7
20260831000244 67 50 0.0 2.0 0.00 0.00 0.00 90 1015.7
20260830235743 67 72 1.0 2.0 0.00 0.00 0.00 90 1015.8
20260830235238 67 63 0.0 2.0 0.00 0.00 0.00 90 1015.7
20260830234733 67 67 0.0 2.0 0.00 0.00 0.00 89 1015.6
20260830234507 68 219 0.0 0.0 0.00 0.00 0.00 89 1014.3
20260830234229 67 79 1.0 2.0 0.00 0.00 0.00 89 1015.8
20260830233724 67 48 1.0 2.0 0.00 0.00 0.00 89 1015.9
20260830233220 67 36 0.0 2.0 0.00 0.00 0.00 89 1016.0
20260830232715 68 59 2.0 2.0 0.00 0.00 0.00 89 1015.8
20260830232211 68 69 0.0 2.0 0.00 0.00 0.00 89 1015.7
20260830231708 68 58 2.0 2.0 0.00 0.00 0.00 89 1015.8
20260830231507 68 219 0.0 1.0 0.00 0.00 0.00 89 1014.3
20260830231207 68 85 1.0 2.0 0.00 0.00 0.00 89 1015.7
20260830230707 68 59 0.0 2.0 0.00 0.00 0.00 89 1015.8
20260830230202 68 349 0.0 1.0 0.00 0.00 0.00 89 1015.7
20260830225657 68 48 0.0 2.0 0.00 0.00 0.00 89 1016.1
20260830225157 68 55 1.0 2.0 0.00 0.00 0.00 89 1016.1
20260830224656 68 56 0.0 2.0 0.00 0.00 0.00 89 1016.0
20260830224153 68 49 1.0 2.0 0.00 0.00 0.00 88 1015.9
20260830223650 68 39 2.0 2.0 0.02 0.00 0.00 88 1015.9
20260830223149 68 95 0.0 2.0 0.02 0.00 0.00 88 1015.9
20260830223007 68 227 0.0 1.0 0.00 0.00 0.00 88 1014.5
20260830222644 68 55 1.0 2.0 0.00 0.00 0.00 88 1015.9
20260830222140 68 72 1.0 2.0 0.00 0.00 0.00 87 1015.9
20260830221635 68 23 0.0 1.0 0.00 0.00 0.00 87 1015.9
20260830221508 68 227 0.0 1.0 0.00 0.00 0.00 87 1014.6
20260830221131 68 47 0.0 1.0 0.00 0.00 0.00 86 1016.0
20260830220627 68 315 0.0 1.0 0.00 0.00 0.00 86 1016.0
20260830220125 68 56 2.0 2.0 0.00 0.00 0.00 85 1016.2
20260830220006 69 224 0.0 2.0 0.00 0.00 0.00 84 1014.6
20260830215624 69 239 0.0 2.0 0.00 0.00 0.00 84 1016.0
20260830215119 69 29 1.0 2.0 0.00 0.00 0.00 83 1015.9
20260830214614 69 82 0.0 3.0 0.00 0.00 0.00 82 1015.9
20260830214506 70 135 1.0 3.0 0.00 0.00 0.00 80 1014.6
20260830214109 70 269 0.0 2.0 0.00 0.00 0.00 80 1016.0
20260830213608 71 86 2.0 2.0 0.00 0.00 0.00 78 1016.0
20260830213104 71 84 3.0 3.0 0.00 0.00 0.00 75 1015.9
20260830213008 73 44 1.0 6.0 0.00 0.00 0.00 74 1014.3
20260830212601 72 288 0.0 3.0 0.00 0.00 0.00 73 1015.8
20260830212100 73 141 0.0 3.0 0.00 0.00 0.00 70 1015.7
20260830211555 74 18 2.0 4.0 0.00 0.00 0.00 66 1015.4
20260830211507 74 110 2.0 6.0 0.00 0.00 0.00 65 1013.9
20260830211055 74 36 2.0 3.0 0.00 0.00 0.00 65 1015.1
20260830210550 74 91 3.0 4.0 0.00 0.00 0.00 68 1015.3
20260830210049 74 40 0.0 1.0 0.00 0.00 0.00 70 1015.1
20260830210007 75 246 0.0 2.0 0.00 0.00 0.00 69 1013.5
20260830205547 75 274 0.0 1.0 0.00 0.00 0.00 69 1015.1
20260830205043 75 257 0.0 2.0 0.00 0.00 0.00 66 1015.0
20260830204542 75 54 0.0 2.0 0.00 0.00 0.00 65 1014.8
20260830204507 76 246 0.0 2.0 0.00 0.00 0.00 66 1013.3
20260830204042 76 356 0.0 1.0 0.00 0.00 0.00 64 1014.9
20260830203538 76 233 0.0 1.0 0.00 0.00 0.00 65 1015.0
20260830203033 76 48 1.0 2.0 0.00 0.00 0.00 65 1014.7
20260830203008 76 246 0.0 2.0 0.00 0.00 0.00 65 1013.2
20260830202532 76 347 0.0 1.0 0.00 0.00 0.00 66 1014.9
20260830202028 76 1 1.0 1.0 0.00 0.00 0.00 66 1014.8
20260830201527 76 246 0.0 2.0 0.00 0.00 0.00 64 1014.8
20260830201023 76 217 0.0 1.0 0.00 0.00 0.00 66 1014.9
20260830200518 76 238 0.0 2.0 0.00 0.00 0.00 64 1014.9
20260830200017 77 214 0.0 3.0 0.00 0.00 0.00 64 1014.8
20260830200007 77 244 1.0 2.0 0.00 0.00 0.00 65 1013.1
20260830195513 77 293 0.0 2.0 0.00 0.00 0.00 61 1014.6
20260830195010 77 248 0.0 2.0 0.00 0.00 0.00 61 1014.8
20260830194510 77 236 1.0 3.0 0.00 0.00 0.00 59 1015.1
20260830194507 77 244 1.0 2.0 0.00 0.00 0.00 61 1013.3
20260830194010 77 246 2.0 2.0 0.00 0.00 0.00 60 1015.0
20260830193509 77 238 1.0 2.0 0.00 0.00 0.00 58 1014.8
20260830193008 77 242 1.0 3.0 0.00 0.00 0.00 58 1013.4
20260830193005 77 351 0.0 2.0 0.00 0.00 0.00 58 1015.2
20260830192500 77 288 0.0 2.0 0.00 0.00 0.00 60 1015.3
20260830191955 77 212 0.0 3.0 0.00 0.00 0.00 58 1015.0
20260830191449 78 229 4.0 4.0 0.00 0.00 0.00 58 1015.2
20260830190945 78 229 3.0 4.0 0.00 0.00 0.00 56 1015.3
20260830190440 78 262 1.0 2.0 0.00 0.00 0.00 58 1015.5
20260830190007 78 208 2.0 5.0 0.00 0.00 0.00 57 1013.8
20260830185939 77 66 2.0 3.0 0.00 0.00 0.00 57 1015.5
20260830185434 78 251 1.0 5.0 0.00 0.00 0.00 58 1015.5
20260830184930 78 72 0.0 2.0 0.00 0.00 0.00 59 1015.3
20260830184508 78 232 1.0 3.0 0.00 0.00 0.00 60 1013.9
20260830184429 79 296 0.0 2.0 0.00 0.00 0.00 59 1015.6
20260830183924 79 283 0.0 2.0 0.00 0.00 0.00 58 1015.3
20260830183423 78 222 0.0 2.0 0.00 0.00 0.00 57 1015.4
20260830183008 78 226 1.0 2.0 0.00 0.00 0.00 58 1013.9
20260830182919 78 76 0.0 2.0 0.00 0.00 0.00 57 1015.7
20260830182415 78 83 1.0 3.0 0.00 0.00 0.00 56 1015.6
20260830181911 78 57 2.0 2.0 0.00 0.00 0.00 57 1015.8
20260830181508 76 240 0.0 2.0 0.00 0.00 0.00 64 1014.2
20260830181406 77 58 2.0 2.0 0.00 0.00 0.00 62 1015.7
20260830180901 76 238 0.0 1.0 0.00 0.00 0.00 63 1015.8
20260830180400 76 245 1.0 3.0 0.00 0.00 0.00 67 1015.8
20260830180007 76 240 1.0 3.0 0.00 0.00 0.00 68 1014.2
20260830175859 76 233 1.0 2.0 0.00 0.00 0.00 68 1015.7
20260830175354 76 34 0.0 2.0 0.00 0.00 0.00 68 1016.0
20260830174848 77 238 1.0 2.0 0.00 0.00 0.00 66 1015.8
20260830174506 77 265 0.0 3.0 0.00 0.00 0.00 67 1014.4
20260830174343 77 281 1.0 2.0 0.00 0.00 0.00 66 1016.1
20260830173839 78 227 3.0 4.0 0.00 0.00 0.00 65 1016.1
20260830173334 78 243 1.0 3.0 0.00 0.00 0.00 65 1015.8
20260830173008 78 266 1.0 2.0 0.00 0.00 0.00 66 1014.1
20260830172830 78 248 1.0 1.0 0.00 0.00 0.00 65 1015.6
20260830172326 78 287 0.0 2.0 0.00 0.00 0.00 62 1015.9
20260830171822 78 242 2.0 2.0 0.00 0.00 0.00 64 1015.9
20260830171506 77 276 1.0 3.0 0.00 0.00 0.00 67 1014.3
20260830171318 78 242 2.0 2.0 0.00 0.00 0.00 66 1016.0
20260830170812 77 38 0.0 2.0 0.00 0.00 0.00 65 1015.9
20260830170311 77 310 0.0 2.0 0.00 0.00 0.00 66 1016.1
20260830170006 77 258 2.0 3.0 0.00 0.00 0.00 65 1014.5
20260830165810 77 245 1.0 3.0 0.00 0.00 0.00 64 1016.1
20260830165306 77 291 0.0 4.0 0.00 0.00 0.00 66 1016.3
20260830164803 79 356 2.0 3.0 0.00 0.00 0.00 61 1016.2
20260830164506 77 168 0.0 2.0 0.00 0.00 0.00 67 1014.5
20260830164259 78 17 0.0 2.0 0.00 0.00 0.00 68 1016.4
20260830163755 76 283 0.0 2.0 0.00 0.00 0.00 68 1016.3
20260830163250 76 193 0.0 2.0 0.00 0.00 0.00 65 1016.1
20260830163008 76 242 0.0 2.0 0.00 0.00 0.00 68 1014.8
20260830162744 76 286 0.0 1.0 0.00 0.00 0.00 66 1016.7
20260830162241 75 269 0.0 2.0 0.00 0.00 0.00 66 1016.5
20260830161736 75 275 0.0 1.0 0.00 0.00 0.00 66 1016.7
20260830161506 75 227 2.0 3.0 0.00 0.00 0.00 67 1014.8
20260830161230 75 254 1.0 3.0 0.00 0.00 0.00 67 1016.5
20260830160726 75 222 2.0 2.0 0.00 0.00 0.00 69 1016.8
20260830160225 75 251 3.0 4.0 0.00 0.00 0.00 66 1016.8
20260830160006 76 245 1.0 3.0 0.00 0.00 0.00 66 1015.0
20260830155722 76 264 1.0 2.0 0.00 0.00 0.00 66 1016.8
20260830155218 76 234 3.0 4.0 0.00 0.00 0.00 65 1016.9
20260830154713 76 222 0.0 3.0 0.00 0.00 0.00 67 1017.0
20260830154209 75 25 2.0 3.0 0.00 0.00 0.00 65 1017.2
20260830153706 74 39 0.0 1.0 0.00 0.00 0.00 66 1017.1
20260830153205 73 86 1.0 2.0 0.00 0.00 0.00 69 1016.9
20260830123408 60 69 2.0 2.0 0.00 0.00 0.00 82 1018.0
20260830122905 60 69 2.0 2.0 0.00 0.00 0.00 82 1018.0
20260830122400 60 65 2.0 3.0 0.00 0.00 0.00 82 1018.1
20260830121855 60 71 2.0 2.0 0.00 0.00 0.00 82 1018.1
20260830121507 59 108 0.0 2.0 0.00 0.00 0.00 86 1016.8
20260830121355 60 59 2.0 3.0 0.00 0.00 0.00 82 1018.1
20260830120850 60 224 0.0 2.0 0.00 0.00 0.00 85 1018.4
20260830120345 59 278 1.0 2.0 0.00 0.00 0.00 86 1018.2
20260830120006 57 248 0.0 2.0 0.00 0.00 0.00 91 1016.8
20260830115842 58 53 0.0 1.0 0.00 0.00 0.00 89 1018.2
20260830115338 57 256 0.0 2.0 0.00 0.00 0.00 90 1018.4
20260830114833 57 166 0.0 2.0 0.00 0.00 0.00 91 1018.5
20260830114507 56 196 1.0 2.0 0.00 0.00 0.00 93 1016.9
20260830114329 56 129 0.0 2.0 0.00 0.00 0.00 91 1018.5
20260830113824 56 49 1.0 2.0 0.00 0.00 0.00 92 1018.5
20260830113319 56 36 2.0 4.0 0.00 0.00 0.00 92 1018.6
20260830113008 55 133 0.0 1.0 0.00 0.00 0.00 93 1017.3
20260830112815 55 56 1.0 3.0 0.00 0.00 0.00 93 1018.7
20260830112311 55 53 2.0 3.0 0.00 0.00 0.00 93 1018.9
20260830111807 55 61 2.0 3.0 0.00 0.00 0.00 94 1018.5
20260830111506 55 141 0.0 0.0 0.00 0.00 0.00 93 1017.2
20260830111302 55 59 2.0 3.0 0.00 0.00 0.00 94 1018.8
20260830110801 54 75 2.0 2.0 0.00 0.00 0.00 94 1018.7
20260830110258 54 43 2.0 3.0 0.00 0.00 0.00 94 1018.8
20260830110006 55 141 0.0 0.0 0.00 0.00 0.00 93 1017.3
20260830105757 54 37 2.0 3.0 0.00 0.00 0.00 94 1018.8
20260830105254 54 49 2.0 2.0 0.00 0.00 0.00 94 1018.9
20260830104749 54 62 2.0 2.0 0.00 0.00 0.00 93 1018.8
20260830104506 55 141 0.0 0.0 0.00 0.00 0.00 92 1017.3
20260830104247 54 45 0.0 2.0 0.00 0.00 0.00 93 1018.9
20260830103745 54 42 1.0 3.0 0.00 0.00 0.00 93 1018.8
20260830103241 54 63 1.0 3.0 0.00 0.00 0.00 93 1018.7
20260830103007 55 141 0.0 0.0 0.00 0.00 0.00 92 1017.3
20260830102739 54 41 2.0 3.0 0.00 0.00 0.00 93 1019.1
20260830102235 54 45 3.0 3.0 0.00 0.00 0.00 92 1019.1
20260830101731 54 45 2.0 3.0 0.00 0.00 0.00 92 1018.8
20260830101507 55 141 0.0 0.0 0.00 0.00 0.00 91 1017.3
20260830101226 55 43 2.0 2.0 0.00 0.00 0.00 92 1018.8
20260830100720 55 39 2.0 3.0 0.00 0.00 0.00 92 1018.7
20260830100220 55 54 1.0 3.0 0.00 0.00 0.00 92 1018.8
20260830100007 55 141 0.0 0.0 0.00 0.00 0.00 92 1017.2
20260830095719 55 34 2.0 3.0 0.00 0.00 0.00 92 1018.8
20260830095215 55 52 2.0 2.0 0.00 0.00 0.00 92 1018.6
20260830094711 55 66 2.0 2.0 0.00 0.00 0.00 92 1018.7
20260830094506 56 141 0.0 0.0 0.00 0.00 0.00 91 1017.2
20260830094206 55 36 2.0 3.0 0.00 0.00 0.00 92 1018.8
20260830093701 55 60 2.0 2.0 0.00 0.00 0.00 92 1018.7
20260830093158 55 66 0.0 3.0 0.00 0.00 0.00 92 1018.9
20260830093007 56 141 0.0 0.0 0.00 0.00 0.00 91 1017.3
20260830092657 55 56 2.0 3.0 0.00 0.00 0.00 92 1018.9
20260830092155 55 43 2.0 3.0 0.00 0.00 0.00 92 1018.8
20260830091655 55 53 1.0 3.0 0.00 0.00 0.00 92 1018.9
20260830091507 56 141 0.0 1.0 0.00 0.00 0.00 91 1017.3
20260830091154 55 54 0.0 2.0 0.00 0.00 0.00 92 1018.9
20260830090649 55 35 2.0 2.0 0.00 0.00 0.00 92 1018.6
20260830090145 55 45 2.0 2.0 0.00 0.00 0.00 91 1018.7
20260830090007 56 141 0.0 1.0 0.00 0.00 0.00 91 1017.2
20260830085643 56 44 0.0 2.0 0.00 0.00 0.00 91 1018.8
20260830085140 56 50 1.0 2.0 0.00 0.00 0.00 91 1018.9
20260830084640 56 59 1.0 2.0 0.00 0.00 0.00 91 1018.9
20260830084507 56 141 0.0 1.0 0.00 0.00 0.00 90 1017.3
20260830084136 56 48 2.0 2.0 0.00 0.00 0.00 91 1019.1
20260830083632 56 65 2.0 3.0 0.00 0.00 0.00 91 1019.0
20260830083127 56 68 1.0 3.0 0.00 0.00 0.00 91 1019.1
20260830083007 56 141 0.0 0.0 0.00 0.00 0.00 90 1017.3
20260830082626 56 38 2.0 3.0 0.00 0.00 0.00 91 1019.1
20260830082122 56 57 2.0 3.0 0.00 0.00 0.00 91 1019.1
20260830081618 56 73 2.0 2.0 0.00 0.00 0.00 91 1019.2
20260830081507 57 141 0.0 0.0 0.00 0.00 0.00 90 1017.5
20260830081117 56 51 2.0 3.0 0.00 0.00 0.00 91 1019.2
20260830080612 56 58 2.0 2.0 0.00 0.00 0.00 91 1019.3
20260830080107 56 68 1.0 2.0 0.00 0.00 0.00 91 1019.1
20260830080006 56 141 0.0 0.0 0.00 0.00 0.00 90 1017.5
20260830075607 56 50 2.0 2.0 0.00 0.00 0.00 91 1019.2
20260830075102 56 71 0.0 2.0 0.00 0.00 0.00 91 1019.3
20260830074558 56 50 2.0 3.0 0.00 0.00 0.00 91 1019.2
20260830074053 56 51 2.0 2.0 0.00 0.00 0.00 91 1019.4
20260830073549 56 63 2.0 2.0 0.00 0.00 0.00 90 1019.5
20260830073044 56 41 1.0 2.0 0.00 0.00 0.00 91 1019.4
20260830073008 56 141 0.0 0.0 0.00 0.00 0.00 91 1017.7
20260830072540 56 44 2.0 3.0 0.00 0.00 0.00 91 1019.4
20260830072040 56 45 1.0 2.0 0.00 0.00 0.00 91 1019.6
20260830071535 56 61 0.0 2.0 0.00 0.00 0.00 91 1019.7
20260830071507 56 141 0.0 0.0 0.00 0.00 0.00 90 1017.8
20260830071032 56 51 1.0 2.0 0.00 0.00 0.00 90 1019.6
20260830070528 56 49 2.0 2.0 0.00 0.00 0.00 90 1019.4